�������l�o���
Date,Time,MP-1(��Sv/h),MP-2(��Sv/h),MP-3(��Sv/h),MP-4(��Sv/h),MP-5(��Sv/h),MP-6(��Sv/h),MP-7(��Sv/h),MP-8(��Sv/h),����,����(m/s),���J
2018/10/15,00:00,0.776,1.174,0.824,1.469,1.056,0.459,0.804,0.763,�k��,1.2,��
2018/10/15,00:10,0.777,1.174,0.824,1.471,1.055,0.458,0.804,0.763,�k,1.4,��
2018/10/15,00:20,0.776,1.171,0.823,1.468,1.056,0.458,0.803,0.762,���k��,0.9,��
2018/10/15,00:30,0.776,1.171,0.823,1.468,1.056,0.461,0.804,0.762,-,CALM,��
2018/10/15,00:40,0.775,1.172,0.823,1.470,1.057,0.457,0.804,0.761,���쐼,0.6,��
2018/10/15,00:50,0.774,1.171,0.825,1.470,1.056,0.459,0.806,0.761,��,0.9,��
2018/10/15,01:00,0.778,1.171,0.823,1.469,1.057,0.460,0.804,0.762,��,0.9,��
2018/10/15,01:10,0.776,1.174,0.824,1.467,1.057,0.457,0.806,0.762,��,1.5,��
2018/10/15,01:20,0.779,1.173,0.823,1.469,1.054,0.457,0.804,0.761,��,1.5,��
2018/10/15,01:30,0.777,1.172,0.824,1.467,1.057,0.458,0.805,0.762,���k��,2.0,��
2018/10/15,01:40,0.777,1.173,0.822,1.467,1.055,0.459,0.805,0.763,�k��,2.2,��
2018/10/15,01:50,0.776,1.174,0.826,1.470,1.056,0.458,0.805,0.762,�k��,1.9,��
2018/10/15,02:00,0.778,1.172,0.826,1.469,1.056,0.459,0.804,0.763,�k��,2.2,��
2018/10/15,02:10,0.775,1.174,0.823,1.469,1.056,0.460,0.804,0.762,�k��,2.5,��
2018/10/15,02:20,0.776,1.172,0.823,1.472,1.054,0.460,0.803,0.762,�k��,2.2,��
2018/10/15,02:30,0.776,1.172,0.822,1.469,1.058,0.459,0.803,0.761,�k��,2.3,��
2018/10/15,02:40,0.776,1.174,0.825,1.470,1.056,0.459,0.805,0.762,���k��,2.3,��
2018/10/15,02:50,0.777,1.173,0.824,1.469,1.056,0.459,0.804,0.762,���k��,2.9,��
2018/10/15,03:00,0.777,1.174,0.825,1.471,1.054,0.458,0.803,0.761,���k��,4.4,��
2018/10/15,03:10,0.777,1.172,0.824,1.468,1.056,0.459,0.805,0.762,�k��,4.6,��
2018/10/15,03:20,0.776,1.174,0.823,1.468,1.055,0.458,0.803,0.762,�k��,4.8,��
2018/10/15,03:30,0.777,1.172,0.824,1.468,1.054,0.459,0.804,0.761,���k��,3.3,��
2018/10/15,03:40,0.776,1.172,0.824,1.469,1.054,0.459,0.804,0.762,���k��,3.7,��
2018/10/15,03:50,0.777,1.173,0.826,1.471,1.054,0.459,0.803,0.762,���k��,3.2,��
2018/10/15,04:00,0.778,1.172,0.826,1.469,1.059,0.460,0.805,0.762,�k��,4.2,��
2018/10/15,04:10,0.776,1.171,0.826,1.470,1.056,0.458,0.804,0.761,�k��,4.3,��
2018/10/15,04:20,0.777,1.174,0.824,1.472,1.054,0.459,0.805,0.762,�k��,4.1,��
2018/10/15,04:30,0.776,1.174,0.825,1.472,1.056,0.457,0.805,0.762,�k��,3.7,��
2018/10/15,04:40,0.777,1.169,0.824,1.470,1.056,0.458,0.805,0.763,�k��,4.4,��
2018/10/15,04:50,0.776,1.174,0.823,1.469,1.056,0.458,0.806,0.762,�k��,4.2,��
2018/10/15,05:00,0.777,1.171,0.823,1.469,1.055,0.459,0.805,0.761,�k��,4.7,��
2018/10/15,05:10,0.778,1.173,0.824,1.470,1.054,0.458,0.806,0.762,�k��,4.5,��
2018/10/15,05:20,0.778,1.171,0.827,1.470,1.056,0.460,0.804,0.762,�k��,4.3,��
2018/10/15,05:30,0.775,1.172,0.824,1.471,1.054,0.458,0.804,0.763,�k��,3.5,��
2018/10/15,05:40,0.777,1.172,0.825,1.471,1.055,0.457,0.805,0.762,�k��,3.4,��
2018/10/15,05:50,0.775,1.172,0.825,1.470,1.056,0.458,0.805,0.762,�k��,3.4,��
2018/10/15,06:00,0.778,1.171,0.824,1.469,1.054,0.459,0.805,0.763,�k�k��,3.3,��
2018/10/15,06:10,0.776,1.172,0.825,1.471,1.054,0.459,0.803,0.762,�k�k��,2.6,��
2018/10/15,06:20,0.774,1.171,0.823,1.470,1.055,0.458,0.805,0.762,�k�k��,2.6,��
2018/10/15,06:30,0.776,1.171,0.825,1.470,1.056,0.458,0.804,0.762,�k��,2.3,��
2018/10/15,06:40,0.776,1.173,0.823,1.471,1.056,0.459,0.804,0.761,���k��,2.6,��
2018/10/15,06:50,0.776,1.172,0.825,1.470,1.054,0.458,0.802,0.763,���k��,2.2,��
2018/10/15,07:00,0.775,1.172,0.821,1.470,1.056,0.459,0.805,0.763,�k��,2.3,��
2018/10/15,07:10,0.776,1.173,0.822,1.468,1.055,0.457,0.805,0.763,�k��,2.0,��
2018/10/15,07:20,0.776,1.169,0.823,1.466,1.053,0.459,0.803,0.762,�k��,2.5,��
2018/10/15,07:30,0.777,1.171,0.825,1.469,1.056,0.459,0.806,0.762,�k��,1.9,��
2018/10/15,07:40,0.776,1.172,0.824,1.469,1.056,0.459,0.804,0.764,�k��,1.7,��
2018/10/15,07:50,0.778,1.175,0.823,1.470,1.055,0.460,0.806,0.763,�k�k��,1.4,��
2018/10/15,08:00,0.777,1.170,0.823,1.468,1.054,0.459,0.807,0.763,�k��,1.5,��
2018/10/15,08:10,0.776,1.173,0.826,1.470,1.056,0.459,0.805,0.763,���k��,1.4,��
2018/10/15,08:20,0.778,1.174,0.825,1.468,1.058,0.459,0.806,0.764,�k��,1.2,��
2018/10/15,08:30,0.778,1.173,0.824,1.469,1.058,0.459,0.803,0.765,�k��,1.7,��
2018/10/15,08:40,0.777,1.173,0.823,1.473,1.054,0.460,0.804,0.764,�k��,2.0,��
2018/10/15,08:50,0.778,1.174,0.824,1.470,1.056,0.458,0.805,0.765,�k��,1.9,��
2018/10/15,09:00,0.779,1.174,0.825,1.473,1.056,0.458,0.804,0.764,�k��,1.7,��
2018/10/15,09:10,0.778,1.171,0.827,1.472,1.059,0.459,0.803,0.763,�k��,1.7,��
2018/10/15,09:20,0.779,1.174,0.826,1.471,1.060,0.459,0.803,0.762,�k��,1.9,��
2018/10/15,09:30,0.779,1.169,0.826,1.471,1.060,0.459,0.803,0.763,�k�k��,1.5,��
2018/10/15,09:40,0.780,1.168,0.827,1.470,1.059,0.459,0.805,0.762,�k,1.7,��
2018/10/15,09:50,0.778,1.170,0.826,1.470,1.059,0.458,0.803,0.762,�k,1.2,��
2018/10/15,10:00,0.780,1.170,0.826,1.474,1.060,0.458,0.805,0.764,�k��,0.6,��
2018/10/15,10:10,0.781,1.169,0.825,1.469,1.058,0.457,0.802,0.762,�k��,1.4,��
2018/10/15,10:20,0.779,1.168,0.828,1.471,1.060,0.457,0.805,0.761,��,1.1,��
2018/10/15,10:30,0.776,1.172,0.827,1.471,1.058,0.458,0.804,0.763,���k��,1.4,��
2018/10/15,10:40,0.775,1.171,0.827,1.471,1.058,0.458,0.804,0.761,��,1.5,��
2018/10/15,10:50,0.775,1.166,0.826,1.469,1.059,0.457,0.803,0.762,��,1.2,��
2018/10/15,11:00,0.778,1.169,0.826,1.472,1.056,0.459,0.804,0.762,���쓌,1.9,��
2018/10/15,11:10,0.778,1.168,0.824,1.472,1.059,0.458,0.804,0.761,�쓌,2.0,��
2018/10/15,11:20,0.779,1.171,0.825,1.471,1.059,0.459,0.806,0.761,�쓌,1.2,��
2018/10/15,11:30,0.778,1.168,0.823,1.470,1.059,0.459,0.806,0.761,��,2.3,��
2018/10/15,11:40,0.777,1.170,0.825,1.472,1.057,0.457,0.806,0.760,��,1.7,��
2018/10/15,11:50,0.778,1.169,0.826,1.471,1.060,0.457,0.804,0.762,��,1.7,��
2018/10/15,12:00,0.779,1.173,0.825,1.472,1.057,0.458,0.805,0.760,��,2.3,��
2018/10/15,12:10,0.778,1.170,0.823,1.471,1.061,0.459,0.807,0.762,���k��,2.0,��
2018/10/15,12:20,0.778,1.169,0.825,1.470,1.057,0.460,0.807,0.763,��,2.0,��
2018/10/15,12:30,0.778,1.171,0.824,1.473,1.058,0.458,0.806,0.762,��,1.9,��
2018/10/15,12:40,0.780,1.171,0.826,1.474,1.058,0.460,0.806,0.762,���쓌,2.0,��
2018/10/15,12:50,0.778,1.172,0.826,1.473,1.058,0.459,0.806,0.762,���쓌,2.0,��
2018/10/15,13:00,0.778,1.169,0.826,1.474,1.060,0.460,0.805,0.761,���쓌,1.5,��
2018/10/15,13:10,0.777,1.168,0.825,1.472,1.058,0.461,0.805,0.762,���쓌,1.4,��
2018/10/15,13:20,0.780,1.173,0.822,1.474,1.059,0.458,0.805,0.762,��,1.7,��
2018/10/15,13:30,0.779,1.172,0.824,1.472,1.060,0.459,0.806,0.762,���쓌,1.9,��
2018/10/15,13:40,0.780,1.169,0.825,1.475,1.059,0.459,0.806,0.763,���쓌,1.5,��
2018/10/15,13:50,0.777,1.173,0.826,1.473,1.060,0.458,0.803,0.761,���k��,1.4,��
2018/10/15,14:00,0.779,1.170,0.825,1.476,1.058,0.459,0.805,0.761,��,2.0,��
2018/10/15,14:10,0.779,1.171,0.826,1.473,1.061,0.458,0.805,0.763,��,1.5,��
2018/10/15,14:20,0.779,1.171,0.825,1.471,1.060,0.460,0.807,0.762,���쓌,1.4,��
2018/10/15,14:30,0.779,1.170,0.828,1.472,1.059,0.459,0.805,0.761,��,1.5,��
2018/10/15,14:40,0.779,1.170,0.827,1.474,1.060,0.460,0.806,0.762,���쓌,1.9,��
2018/10/15,14:50,0.781,1.171,0.828,1.474,1.061,0.461,0.805,0.762,�쓌,2.3,��
2018/10/15,15:00,0.781,1.176,0.830,1.473,1.061,0.461,0.806,0.763,�쓌,1.7,��
2018/10/15,15:10,0.780,1.175,0.828,1.472,1.061,0.461,0.805,0.764,���쓌,1.7,��
2018/10/15,15:20,0.781,1.176,0.828,1.476,1.061,0.462,0.805,0.764,��,1.7,��
2018/10/15,15:30,0.782,1.175,0.828,1.473,1.062,0.461,0.805,0.762,���쓌,1.5,��
2018/10/15,15:40,0.782,1.179,0.830,1.476,1.062,0.462,0.807,0.762,�쓌,1.5,��
2018/10/15,15:50,0.782,1.181,0.829,1.476,1.060,0.461,0.804,0.762,���쓌,1.5,��
2018/10/15,16:00,0.783,1.180,0.829,1.475,1.064,0.459,0.805,0.762,�쓌,2.0,��
2018/10/15,16:10,0.784,1.180,0.829,1.475,1.060,0.461,0.804,0.765,��쓌,1.7,��
2018/10/15,16:20,0.781,1.180,0.829,1.475,1.062,0.460,0.804,0.763,�쓌,2.0,��
2018/10/15,16:30,0.783,1.181,0.830,1.477,1.063,0.462,0.804,0.764,��,1.5,��
2018/10/15,16:40,0.784,1.180,0.828,1.477,1.063,0.462,0.806,0.763,��,1.1,��
2018/10/15,16:50,0.784,1.179,0.829,1.474,1.063,0.462,0.804,0.765,��쐼,0.6,��
2018/10/15,17:00,0.783,1.180,0.829,1.474,1.064,0.461,0.804,0.766,-,CALM,��
2018/10/15,17:10,0.784,1.180,0.831,1.477,1.066,0.462,0.805,0.764,�쐼,0.8,��
2018/10/15,17:20,0.781,1.180,0.829,1.473,1.064,0.463,0.805,0.765,���쐼,0.8,��
2018/10/15,17:30,0.783,1.180,0.829,1.473,1.062,0.462,0.806,0.764,-,CALM,��
2018/10/15,17:40,0.781,1.179,0.828,1.474,1.065,0.463,0.805,0.764,��,0.6,��
2018/10/15,17:50,0.781,1.179,0.829,1.474,1.062,0.462,0.806,0.765,-,CALM,��
2018/10/15,18:00,0.782,1.181,0.827,1.477,1.063,0.462,0.806,0.763,-,CALM,��
2018/10/15,18:10,0.781,1.180,0.828,1.474,1.064,0.461,0.806,0.763,-,CALM,��
2018/10/15,18:20,0.778,1.179,0.830,1.477,1.063,0.462,0.805,0.763,�쐼,0.9,��
2018/10/15,18:30,0.781,1.181,0.830,1.476,1.063,0.460,0.804,0.764,��쓌,1.3,��
2018/10/15,18:40,0.780,1.181,0.829,1.477,1.064,0.462,0.805,0.765,��,1.9,��
2018/10/15,18:50,0.781,1.181,0.829,1.476,1.063,0.461,0.807,0.764,��,1.4,��
2018/10/15,19:00,0.781,1.180,0.829,1.473,1.063,0.460,0.806,0.763,��,0.7,��
2018/10/15,19:10,0.781,1.179,0.828,1.475,1.063,0.461,0.807,0.764,��,1.1,��
2018/10/15,19:20,0.781,1.180,0.829,1.479,1.063,0.462,0.807,0.763,��,1.7,��
2018/10/15,19:30,0.781,1.176,0.828,1.476,1.060,0.461,0.806,0.763,��,1.7,��
2018/10/15,19:40,0.781,1.179,0.827,1.474,1.062,0.461,0.806,0.765,��,1.9,��
2018/10/15,19:50,0.782,1.179,0.827,1.474,1.062,0.464,0.807,0.764,��,2.3,��
2018/10/15,20:00,0.781,1.178,0.829,1.476,1.061,0.462,0.807,0.765,��,2.6,��
2018/10/15,20:10,0.783,1.179,0.830,1.475,1.064,0.460,0.805,0.764,��쐼,2.9,��
2018/10/15,20:20,0.781,1.177,0.829,1.474,1.063,0.461,0.807,0.763,��쐼,2.3,��
2018/10/15,20:30,0.779,1.179,0.828,1.475,1.062,0.460,0.806,0.763,��쐼,2.6,��
2018/10/15,20:40,0.780,1.179,0.829,1.476,1.060,0.461,0.807,0.764,��쐼,2.3,��
2018/10/15,20:50,0.783,1.179,0.828,1.474,1.061,0.462,0.806,0.765,��쐼,2.3,��
2018/10/15,21:00,0.782,1.179,0.828,1.476,1.063,0.462,0.805,0.765,��쐼,2.6,��
2018/10/15,21:10,0.780,1.178,0.828,1.474,1.061,0.461,0.806,0.764,��쐼,3.7,��
2018/10/15,21:20,0.782,1.180,0.829,1.473,1.062,0.462,0.805,0.764,��쐼,3.5,��
2018/10/15,21:30,0.783,1.178,0.829,1.475,1.062,0.461,0.806,0.764,��,2.3,��
2018/10/15,21:40,0.783,1.180,0.828,1.476,1.063,0.461,0.807,0.765,��,2.3,��
2018/10/15,21:50,0.780,1.180,0.829,1.476,1.063,0.460,0.806,0.763,��쐼,2.5,��
2018/10/15,22:00,0.780,1.175,0.827,1.474,1.061,0.461,0.807,0.764,��,1.7,��
2018/10/15,22:10,0.780,1.176,0.828,1.474,1.060,0.461,0.808,0.764,��,3.1,��
2018/10/15,22:20,0.778,1.177,0.828,1.477,1.061,0.462,0.807,0.764,��쐼,3.1,��
2018/10/15,22:30,0.780,1.180,0.828,1.477,1.063,0.460,0.805,0.763,��쐼,3.2,��
2018/10/15,22:40,0.783,1.178,0.828,1.476,1.062,0.461,0.806,0.763,��쐼,3.2,��
2018/10/15,22:50,0.782,1.179,0.827,1.475,1.062,0.460,0.805,0.763,��쐼,3.4,��
2018/10/15,23:00,0.781,1.179,0.828,1.474,1.060,0.461,0.805,0.764,��쐼,3.5,��
2018/10/15,23:10,0.780,1.178,0.828,1.477,1.063,0.460,0.806,0.763,��쐼,3.4,��
2018/10/15,23:20,0.781,1.178,0.828,1.475,1.061,0.460,0.804,0.764,�쐼,3.0,��
2018/10/15,23:30,0.779,1.177,0.828,1.475,1.061,0.461,0.806,0.763,�쐼,3.0,��
2018/10/15,23:40,0.780,1.176,0.828,1.477,1.059,0.460,0.806,0.764,�쐼,3.2,��
2018/10/15,23:50,0.781,1.176,0.828,1.474,1.061,0.461,0.808,0.763,�쐼,3.5,��
